Temp
58 56 51 57 60 57 56 53 52 52 52 52 54 56 60 60 58 60 61 61 59 59 63 62 62 63 63 62 61 61 59 58 58 57 57 57 58 57 58 59 58 59 58 58
53 50 58 56 55 53 52 52 51 50 50 51 51 54 60 56 56 56 59 61 59 59 59 59 60 61 61 61 61 60 59 58 59 59 59 60 58 58 58 57 57 58 58 57
52 53 53 53 49 49 51 51 50 51 48 48 48 53 52 49 50 51 52 52 55 58 59 59 59 60 60 60 60 60 59 58 58 59 56 55 55 55 55 55 56 56 57 57
53 52 50 50 49 51 44 51 50 47 47 43 46 42 53 50 48 49 51 51 51 54 58 60 59 59 60 60 61 60 59 58 58 57 57 56 57 55 57 57 57 56 57 56
47 47 47 47 48 51 47 48 48 46 43 43 42 38 52 49 46 48 47 48 49 51 56 57 58 59 60 60 58 59 59 57 57 56 58 58 57 58 57 56 55 56 55 56
46 48 47 48 44 46 46 46 45 44 43 33 38 42 50 48 48 47 47 47 47 49 53 55 56 57 56 57 57 57 56 56 56 56 56 57 57 55 54 54 54 55 55 55
43 43 45 46 44 46 45 45 35 33 31 34 35 36 50 43 42 45 44 46 47 50 51 51 52 53 53 53 54 55 56 54 56 55 56 56 57 56 56 55 55 54 54 54
41 37 42 43 43 41 43 41 38 31 31 38 34 34 44 42 43 44 44 44 47 48 49 50 51 52 52 53 53 55 55 55 55 56 55 56 56 57 57 56 56 56 56 56
40 39 40 41 42 42 41 37 42 31 29 33 41 41 38 40 41 43 42 44 43 46 47 48 49 51 52 53 53 54 54 55 55 55 55 55 55 55 55 55 56 56 56 55
46 35 38 39 42 42 40 42 36 34 29 30 37 35 45 36 39 41 41 42 42 43 45 46 47 49 51 52 52 53 54 54 54 54 55 55 54 54 55 55 53 54 55 54
43 41 34 39 37 35 36 34 34 37 35 34 34 39 39 42 43 41 42 42 42 42 43 44 45 47 48 49 50 50 51 51 51 52 53 53 53 54 54 53 54 54 54 54
43 39 32 36 31 31 34 36 37 38 29 29 31 37 38 37 38 36 39 39 40 41 42 42 43 45 45 46 47 47 48 48 49 50 51 51 51 52 52 52 53 53 53 53
37 36 31 31 31 33 31 32 31 31 33 29 32 36 35 35 34 34 33 39 39 38 39 40 42 42 42 42 43 44 44 45 46 48 49 49 49 50 50 50 51 51 51 51
45 37 36 36 36 35 29 30 30 32 32 32 32 32 32 34 34 35 38 37 34 35 35 37 38 40 40 40 40 39 37 40 43 46 46 46 47 47 49 49 49 49 50 49
41 34 37 34 33 32 31 30 27 29 33 34 34 33 34 34 34 33 32 30 30 30 30 31 32 34 35 35 35 36 36 38 40 42 42 42 44 45 45 45 45 45 45 46
38 32 30 27 28 26 27 28 30 29 26 25 21 27 31 25 28 29 29 29 30 29 29 29 29 31 32 33 34 34 35 36 37 37 37 38 40 41 41 41 41 42 42 42
33 29 30 30 26 24 25 26 26 29 29 27 25 33 27 25 28 30 31 30 29 29 28 28 29 30 31 32 34 33 34 34 33 32 35 37 37 37 38 39 39 39 40 41
30 29 28 25 23 22 31 22 26 30 26 26 24 23 28 29 27 26 27 30 26 26 27 28 28 25 29 30 30 31 33 33 32 32 35 37 37 37 37 37 37 38 38 38
33 32 22 23 25 31 29 24 24 26 32 28 27 24 26 25 27 24 26 27 26 24 21 22 20 20 21 25 28 29 31 34 32 32 35 38 38 37 37 36 37 37 37 37
30 31 31 22 24 24 32 30 31 29 31 27 26 25 22 25 29 28 24 21 18 17 16 15 16 19 22 26 29 30 30 31 30 33 35 36 36 36 36 37 36 37 36 36
25 26 26 25 25 30 33 31 31 30 31 27 28 28 24 26 25 26 21 18 17 14 14 14 13 13 13 17 20 29 31 29 28 31 32 33 35 35 36 35 35 34 34 35
23 23 23 22 19 22 32 30 30 29 28 28 30 29 19 22 21 18 17 14 13 11 10 9 10 10 10 12 16 18 21 24 26 27 29 30 31 33 33 33 33 33 33 32
23 29 28 29 30 26 25 26 26 28 28 27 25 25 24 22 21 20 14 11 9 8 8 7 7 9 9 10 12 13 16 21 22 24 27 30 31 31 32 31 31 31 31 31
24 25 28 26 25 23 23 24 26 29 27 27 27 26 25 22 23 20 17 13 10 8 6 5 7 6 8 8 10 9 13 17 19 22 24 28 29 31 32 32 31 31 31 30
25 25 26 25 18 19 20 22 24 22 23 22 23 23 22 21 19 17 15 12 10 9 6 5 4 5 6 7 9 10 10 14 17 20 22 24 28 28 29 31 31 31 32 33
20 21 26 28 18 20 18 21 22 20 20 20 17 16 17 18 15 16 13 13 9 5 5 5 5 4 5 6 6 8 8 11 14 18 21 23 25 25 27 28 28 33 33 33
MSLP
1013.54 1013.12 1012.42 1012.00 1012.18 1012.43 1012.19 1012.53 1012.87 1013.79 1014.52 1014.52 1014.00 1013.67 1013.68 1014.40 1014.98 1015.05 1015.41 1016.14 1016.82 1017.38 1017.99 1018.84 1019.63 1020.29 1020.98 1021.72 1022.44 1023.15 1023.82 1024.50 1024.97 1025.34 1025.52 1025.84 1025.99 1026.44 1026.61 1026.78 1027.08 1027.16 1027.35 1027.49
1013.67 1012.71 1012.50 1012.78 1013.05 1013.00 1012.96 1012.96 1013.36 1014.24 1014.73 1014.74 1014.33 1013.57 1013.63 1014.48 1015.09 1015.57 1015.69 1016.09 1016.68 1017.22 1017.89 1018.63 1019.24 1020.00 1020.63 1021.26 1022.03 1022.80 1023.48 1024.24 1024.70 1025.01 1025.35 1025.57 1026.04 1026.45 1026.61 1027.00 1027.18 1027.30 1027.41 1027.64
1012.76 1012.99 1013.02 1013.24 1013.59 1013.55 1013.50 1013.31 1013.80 1014.20 1014.97 1015.26 1014.76 1013.59 1013.87 1015.08 1015.82 1016.39 1016.75 1017.13 1017.20 1017.07 1017.35 1018.07 1018.88 1019.54 1020.39 1020.92 1021.60 1022.41 1023.09 1023.86 1024.47 1024.90 1025.63 1026.08 1026.57 1026.89 1026.98 1027.09 1027.21 1027.45 1027.54 1027.77
1013.26 1013.50 1013.68 1013.93 1013.82 1013.93 1014.09 1014.05 1014.25 1014.75 1015.16 1015.24 1015.33 1013.76 1013.40 1014.68 1015.81 1016.55 1017.04 1017.37 1017.43 1017.36 1017.46 1017.73 1018.49 1019.25 1019.91 1020.64 1021.49 1022.30 1023.00 1023.70 1024.36 1024.94 1025.25 1025.55 1025.64 1026.01 1026.25 1026.61 1026.89 1027.43 1027.64 1027.83
1013.54 1013.94 1014.21 1014.55 1014.53 1014.51 1014.85 1014.99 1015.13 1015.40 1015.56 1015.70 1015.54 1015.28 1013.76 1015.00 1015.79 1016.67 1017.53 1017.91 1017.90 1017.77 1017.59 1017.85 1018.44 1019.14 1019.95 1020.77 1021.52 1022.23 1022.95 1023.65 1024.22 1024.75 1025.07 1025.35 1025.52 1025.84 1026.28 1026.62 1026.96 1027.26 1027.66 1027.85
1014.30 1014.88 1015.07 1015.29 1015.75 1015.67 1015.88 1015.83 1016.04 1016.16 1016.12 1016.12 1015.32 1015.49 1014.04 1014.90 1015.83 1017.03 1017.96 1018.31 1018.40 1018.30 1018.32 1018.52 1019.01 1019.61 1020.31 1021.10 1021.75 1022.33 1022.93 1023.49 1024.08 1024.63 1025.04 1025.28 1025.48 1025.85 1026.16 1026.51 1026.76 1027.10 1027.38 1027.77
1014.68 1015.31 1015.86 1016.00 1016.33 1016.71 1016.33 1015.80 1016.18 1016.48 1016.43 1015.80 1016.19 1016.41 1014.61 1016.07 1017.22 1017.93 1018.55 1018.80 1018.96 1018.98 1018.99 1019.22 1019.59 1020.02 1020.57 1021.22 1021.83 1022.39 1022.88 1023.34 1023.90 1024.45 1024.88 1025.21 1025.48 1025.73 1025.87 1026.22 1026.44 1026.76 1027.07 1027.39
1014.04 1015.58 1016.01 1016.37 1016.35 1016.07 1016.26 1015.84 1015.31 1015.48 1015.79 1015.75 1016.66 1015.83 1015.44 1017.17 1018.20 1018.96 1019.40 1019.59 1019.61 1019.73 1019.88 1019.96 1020.22 1020.53 1020.93 1021.48 1021.98 1022.37 1022.78 1023.22 1023.78 1024.24 1024.70 1025.15 1025.47 1025.64 1025.79 1025.99 1026.20 1026.43 1026.61 1026.87
1013.50 1015.16 1016.48 1016.84 1016.97 1017.01 1016.84 1016.58 1016.18 1016.12 1016.92 1016.05 1014.96 1015.34 1016.81 1017.83 1018.61 1019.24 1019.76 1020.04 1020.38 1020.57 1020.73 1020.82 1020.97 1021.11 1021.37 1021.77 1022.21 1022.48 1022.86 1023.25 1023.80 1024.24 1024.69 1025.08 1025.39 1025.60 1025.70 1025.91 1026.11 1026.29 1026.54 1026.86
1013.13 1014.96 1016.73 1017.35 1017.62 1017.60 1017.13 1016.85 1016.78 1016.46 1016.05 1015.44 1014.94 1015.44 1015.26 1017.29 1018.26 1019.30 1019.99 1020.54 1021.13 1021.47 1021.60 1021.74 1021.87 1021.98 1022.17 1022.39 1022.67 1022.90 1023.12 1023.39 1023.82 1024.28 1024.61 1024.89 1025.17 1025.44 1025.61 1025.83 1026.10 1026.28 1026.46 1026.81
1013.58 1014.33 1017.22 1017.65 1017.76 1017.63 1018.01 1017.45 1017.14 1016.54 1016.10 1015.29 1015.15 1015.11 1015.72 1016.50 1017.86 1019.13 1020.23 1021.05 1021.73 1022.13 1022.38 1022.51 1022.70 1022.86 1023.01 1023.19 1023.34 1023.46 1023.56 1023.77 1024.07 1024.37 1024.58 1024.83 1025.08 1025.28 1025.46 1025.67 1025.80 1025.99 1026.29 1026.63
1013.89 1014.55 1016.17 1017.30 1018.36 1018.72 1018.12 1017.42 1016.89 1016.57 1016.91 1016.68 1016.37 1016.03 1016.82 1017.82 1018.61 1019.77 1020.89 1021.85 1022.47 1022.83 1023.06 1023.25 1023.46 1023.57 1023.66 1023.89 1024.07 1024.22 1024.35 1024.46 1024.68 1024.77 1024.85 1024.97 1025.11 1025.23 1025.36 1025.51 1025.64 1025.86 1026.11 1026.34
1013.75 1014.40 1015.91 1017.39 1018.69 1018.89 1018.52 1017.85 1017.62 1017.14 1016.63 1016.68 1016.78 1017.00 1017.87 1018.91 1019.75 1020.69 1021.47 1022.30 1023.00 1023.54 1023.83 1023.98 1024.18 1024.36 1024.59 1024.87 1024.99 1025.07 1025.21 1025.23 1025.27 1025.18 1025.20 1025.26 1025.34 1025.40 1025.43 1025.51 1025.64 1025.81 1025.93 1026.06
1013.68 1013.97 1014.30 1015.17 1015.85 1016.67 1017.93 1017.89 1017.97 1017.40 1017.27 1016.72 1016.77 1017.40 1018.57 1019.46 1020.28 1021.23 1022.03 1022.86 1023.69 1024.25 1024.64 1024.83 1025.03 1025.22 1025.44 1025.66 1025.89 1026.06 1026.27 1026.21 1025.99 1025.77 1025.67 1025.65 1025.68 1025.70 1025.68 1025.73 1025.78 1025.76 1025.89 1026.02
1014.30 1014.46 1014.93 1015.59 1016.17 1016.92 1017.45 1017.66 1017.97 1017.78 1017.08 1017.17 1017.01 1017.61 1017.89 1018.94 1020.03 1021.38 1022.44 1023.57 1024.34 1024.94 1025.40 1025.72 1025.91 1026.05 1026.24 1026.39 1026.62 1026.73 1026.82 1026.79 1026.58 1026.33 1026.20 1026.20 1026.15 1026.10 1026.09 1026.06 1026.02 1026.00 1026.06 1026.11
1014.99 1015.25 1015.63 1016.28 1016.91 1017.69 1018.03 1018.22 1018.32 1018.41 1018.19 1018.27 1018.52 1018.69 1018.89 1020.18 1021.19 1022.34 1023.15 1024.05 1024.80 1025.45 1025.97 1026.37 1026.72 1026.85 1026.93 1026.94 1027.03 1027.13 1027.10 1027.06 1027.03 1026.86 1026.74 1026.68 1026.53 1026.42 1026.37 1026.29 1026.21 1026.10 1026.05 1026.09
1015.72 1015.84 1016.22 1016.73 1017.56 1018.17 1018.36 1017.21 1017.66 1017.72 1017.85 1018.03 1019.03 1018.38 1019.60 1021.02 1021.64 1022.48 1023.42 1024.38 1025.20 1025.85 1026.51 1026.97 1027.32 1027.55 1027.60 1027.61 1027.59 1027.51 1027.53 1027.54 1027.48 1027.36 1027.01 1026.80 1026.69 1026.58 1026.43 1026.38 1026.33 1026.16 1026.14 1026.07
1016.05 1016.16 1016.54 1017.28 1017.82 1017.54 1016.13 1016.83 1017.13 1017.22 1017.63 1018.24 1018.85 1019.44 1020.15 1021.04 1022.41 1023.55 1024.30 1024.86 1026.05 1026.81 1027.40 1027.87 1028.28 1028.41 1028.20 1028.11 1027.90 1027.77 1027.55 1027.52 1027.47 1027.38 1027.04 1026.80 1026.66 1026.54 1026.47 1026.41 1026.30 1026.20 1026.12 1026.05
1016.47 1016.26 1017.06 1017.18 1016.84 1015.76 1015.95 1016.84 1017.21 1017.20 1016.85 1017.42 1018.85 1020.34 1021.35 1022.49 1023.36 1024.80 1025.64 1026.25 1027.17 1028.04 1028.78 1029.15 1029.36 1029.28 1028.98 1028.51 1028.17 1027.84 1027.49 1027.30 1027.29 1027.15 1026.84 1026.57 1026.44 1026.29 1026.13 1026.08 1026.02 1025.98 1025.96 1025.94
1017.12 1016.70 1016.59 1017.25 1016.57 1015.56 1015.42 1016.13 1016.73 1017.19 1017.47 1017.55 1018.75 1020.26 1021.41 1022.53 1023.19 1024.47 1026.30 1027.49 1028.55 1029.32 1029.83 1030.03 1030.10 1029.91 1029.49 1029.03 1028.48 1028.10 1027.84 1027.61 1027.43 1027.18 1026.87 1026.69 1026.48 1026.25 1026.03 1025.90 1025.84 1025.80 1025.82 1025.70
1017.41 1017.31 1016.95 1017.05 1016.65 1015.66 1015.61 1016.59 1017.36 1018.03 1018.51 1018.51 1019.41 1020.42 1021.78 1022.68 1023.76 1024.61 1026.91 1028.41 1029.42 1030.23 1030.66 1030.92 1030.87 1030.80 1030.68 1030.15 1029.44 1028.58 1028.18 1028.04 1027.92 1027.47 1027.11 1026.79 1026.41 1026.15 1025.95 1025.82 1025.74 1025.65 1025.58 1025.54
1016.60 1016.97 1017.27 1017.85 1017.85 1016.94 1016.78 1017.87 1018.28 1018.65 1019.02 1019.62 1020.36 1021.41 1022.95 1023.81 1025.12 1026.46 1027.95 1029.30 1030.28 1031.00 1031.49 1031.73 1031.64 1031.61 1031.44 1030.99 1030.14 1029.73 1029.31 1029.03 1028.52 1027.94 1027.32 1026.84 1026.48 1026.09 1025.87 1025.66 1025.50 1025.39 1025.30 1025.14
1017.41 1016.81 1016.74 1017.09 1017.18 1017.78 1018.72 1019.22 1019.75 1019.79 1019.98 1020.90 1021.66 1022.75 1023.57 1024.61 1025.88 1027.25 1028.80 1030.09 1031.15 1031.84 1032.18 1032.41 1032.36 1032.15 1031.93 1031.63 1031.25 1030.66 1030.18 1029.52 1028.89 1028.13 1027.32 1026.62 1026.28 1026.01 1025.72 1025.47 1025.22 1025.08 1024.97 1024.82
1017.69 1017.88 1017.78 1018.09 1018.58 1019.37 1020.12 1020.82 1021.08 1021.11 1021.53 1022.31 1023.05 1023.79 1024.70 1025.46 1026.68 1028.02 1029.41 1030.70 1031.67 1032.36 1032.73 1032.93 1032.73 1032.59 1032.43 1032.13 1031.76 1031.52 1030.88 1030.17 1029.46 1028.55 1027.80 1026.96 1026.27 1025.64 1025.21 1025.08 1024.83 1024.55 1024.41 1024.35
1018.94 1019.09 1019.23 1019.68 1020.41 1021.15 1021.66 1022.16 1022.54 1023.07 1023.54 1024.09 1024.77 1025.37 1025.99 1026.75 1027.80 1028.77 1029.97 1031.09 1031.93 1032.49 1032.97 1033.13 1033.08 1033.01 1032.83 1032.49 1032.17 1031.86 1031.41 1030.73 1029.80 1028.78 1027.90 1027.13 1026.28 1025.74 1025.21 1024.72 1024.41 1024.09 1023.92 1023.84
1020.88 1021.29 1021.21 1021.35 1021.87 1022.15 1022.96 1023.51 1023.99 1024.38 1025.05 1025.71 1026.33 1027.17 1027.88 1028.30 1028.95 1029.73 1030.59 1031.34 1032.05 1032.56 1033.02 1033.16 1033.25 1033.20 1033.07 1032.80 1032.58 1032.22 1031.78 1031.19 1030.30 1029.10 1028.13 1027.37 1026.63 1026.00 1025.30 1024.72 1024.12 1023.76 1023.51 1023.36
Wind_Speed
3 8 14 18 15 1 3 4 4 2 2 5 9 9 7 7 6 7 8 11 12 13 12 13 14 14 14 14 14 14 13 12 9 7 6 4 5 4 4 4 5 5 5 6
5 13 9 2 8 5 4 5 5 2 2 4 2 10 6 5 3 4 6 9 11 11 12 13 15 15 16 16 16 15 14 13 10 6 4 3 5 3 4 4 5 5 6 6
10 1 4 6 7 9 8 12 7 3 4 1 3 7 7 3 5 3 2 2 6 11 14 15 16 16 15 16 17 15 15 14 10 8 6 5 5 4 4 5 4 4 5 6
7 3 6 6 7 9 8 6 4 7 7 5 2 5 5 6 7 3 3 3 2 6 12 13 15 16 16 14 14 14 14 13 11 11 8 9 5 6 4 5 5 5 5 5
4 6 6 5 1 6 1 3 5 3 4 1 4 2 3 6 8 5 3 4 4 2 10 13 14 13 12 12 12 12 13 12 11 11 8 7 5 3 4 5 7 6 5 6
4 1 1 2 4 2 12 7 6 4 2 3 3 6 6 6 3 5 3 5 5 5 7 8 8 9 10 9 10 11 12 12 11 11 10 9 7 6 6 6 6 5 5 5
3 2 2 2 6 5 2 7 2 3 3 5 2 4 4 5 3 3 4 6 7 7 8 9 9 9 9 10 10 10 12 12 12 11 10 10 8 8 8 7 6 7 6 5
10 6 9 2 1 6 8 3 4 7 5 3 2 7 2 4 5 5 6 7 8 10 9 10 8 8 9 8 8 9 10 11 11 11 10 9 8 6 5 7 5 6 6 6
7 5 2 2 0 1 7 7 3 7 1 2 5 3 4 5 7 7 8 8 9 9 10 11 10 9 8 8 7 7 8 8 9 8 7 8 7 8 7 7 6 5 5 4
5 4 1 2 1 3 2 4 4 0 6 6 5 4 4 12 13 10 9 9 9 8 9 10 10 10 9 8 7 6 6 6 6 7 7 6 7 7 7 6 7 7 6 7
4 1 3 3 8 7 5 3 1 1 2 4 4 4 2 10 15 14 12 9 9 8 8 8 9 9 9 9 9 8 6 6 4 3 4 5 6 6 7 7 7 7 7 7
4 4 5 2 2 2 3 2 5 5 6 0 3 2 1 2 7 10 12 10 8 7 8 8 8 9 9 9 9 9 8 7 5 4 1 2 3 5 6 7 7 6 7 7
8 3 5 2 1 1 6 5 2 3 1 7 5 3 2 5 7 6 11 11 8 7 7 7 7 8 8 8 8 8 8 7 6 5 4 3 1 2 4 5 5 6 6 7
5 3 4 5 4 5 6 7 6 2 4 6 6 5 7 11 13 13 12 10 8 7 7 7 7 7 7 7 7 7 7 7 6 5 5 5 4 3 3 3 4 5 5 7
2 5 3 4 5 2 1 7 12 10 4 7 4 9 11 16 15 14 9 10 9 9 8 7 6 6 6 6 6 6 5 5 5 5 5 5 5 5 4 4 4 3 4 5
2 3 3 2 4 4 4 4 9 8 3 4 1 7 2 5 7 9 11 11 9 9 8 7 5 5 5 5 4 4 4 4 5 5 4 4 5 5 4 4 5 4 5 4
4 7 4 3 2 1 6 14 14 8 6 8 9 6 9 6 10 13 12 11 10 9 8 7 5 4 3 3 2 2 1 2 3 4 4 3 3 5 5 5 6 6 7 5
6 5 1 3 2 6 1 1 3 10 4 10 2 3 5 9 8 5 3 9 9 9 8 6 3 2 3 4 3 3 2 3 3 3 4 3 3 3 5 5 6 6 6 6
3 4 4 4 5 5 3 6 8 9 5 15 8 11 11 13 13 6 6 6 9 7 4 3 3 3 4 5 6 5 4 3 4 5 5 5 5 6 5 6 7 7 6 7
3 4 1 3 4 6 2 2 3 3 4 9 11 16 18 13 8 7 10 8 8 6 3 3 4 2 3 7 6 5 5 5 5 6 7 7 7 7 8 8 8 7 7 8
4 2 7 5 5 7 3 5 4 6 1 9 11 15 14 5 4 16 12 9 6 5 5 4 4 5 6 7 7 4 4 4 8 9 9 10 9 9 9 9 7 8 9 9
8 9 5 4 4 10 5 6 5 4 5 7 10 12 7 12 13 11 10 8 6 5 5 6 4 5 5 6 6 6 5 8 9 9 9 10 10 8 7 9 8 8 9 10
4 3 4 8 2 4 4 5 3 3 6 6 9 11 12 14 12 10 8 7 6 5 4 4 4 4 6 7 7 6 9 10 10 10 9 9 9 8 8 8 8 7 8 8
4 3 2 2 4 4 4 4 4 4 8 10 11 12 11 11 11 11 9 7 5 4 3 2 4 5 5 6 6 5 8 9 9 9 9 8 8 8 7 6 6 7 7 8
2 5 4 2 2 3 3 2 6 10 11 12 10 9 9 11 10 10 8 7 5 4 3 2 3 3 5 6 6 6 8 9 8 8 7 8 7 7 7 7 7 7 9 9
1 2 2 0 4 3 4 7 8 10 9 9 10 10 9 8 9 9 7 6 5 4 3 3 3 3 5 5 5 6 6 7 7 8 6 7 7 7 7 7 7 11 14 15
Wind_Direction
179 205 208 206 213 245 152 195 200 130 134 215 223 250 210 190 215 209 200 199 199 201 186 186 188 186 182 181 178 173 168 164 159 157 150 155 149 142 137 130 137 143 148 150
163 231 218 131 181 181 180 193 199 125 121 232 214 254 222 209 217 262 240 214 208 196 189 188 187 187 189 183 183 179 176 171 175 171 158 144 148 150 136 141 145 150 157 164
208 122 160 164 172 187 210 219 204 242 146 92 289 254 188 129 130 112 91 273 244 219 197 190 190 190 189 189 187 184 179 176 176 166 141 122 119 130 157 163 155 159 164 169
235 126 153 175 201 191 215 197 163 154 178 228 276 257 186 168 162 122 71 5 298 223 212 192 190 190 190 190 186 186 180 177 176 173 175 177 184 172 182 174 158 156 167 169
177 171 160 190 213 186 140 131 134 136 148 244 182 227 156 162 195 175 41 15 9 301 200 187 188 187 186 180 183 183 179 178 176 182 189 189 191 161 154 163 163 168 168 176
80 42 6 99 75 6 143 110 84 83 127 226 159 226 220 181 179 149 97 55 47 77 138 153 159 167 172 171 175 176 178 182 178 185 193 200 196 175 168 175 180 180 179 177
135 159 128 180 110 128 213 164 135 202 200 235 130 196 282 126 110 109 97 76 73 86 107 124 140 154 160 169 172 176 182 183 185 189 196 204 207 197 198 187 194 184 187 194
186 207 182 143 239 188 191 197 191 209 198 152 131 223 198 108 124 113 97 93 91 88 91 94 106 127 143 154 166 176 187 187 190 194 202 205 209 210 211 205 202 203 205 201
179 185 101 46 38 302 164 215 70 103 50 258 185 209 177 163 151 144 121 109 93 89 87 87 89 96 116 132 148 168 175 187 194 201 206 212 212 217 217 216 214 216 211 203
179 120 42 109 190 63 255 128 137 268 189 218 192 264 206 189 174 157 148 126 108 96 89 85 82 86 89 95 109 124 143 170 186 199 211 215 216 219 225 222 220 222 217 206
144 141 125 162 203 174 153 193 61 77 304 221 184 206 51 179 171 165 151 137 125 110 96 89 87 84 84 83 84 87 93 109 129 176 203 216 221 224 224 226 226 227 227 218
175 110 154 157 44 332 323 231 191 213 186 50 323 222 60 147 148 141 147 142 130 117 109 98 91 88 82 77 74 73 72 75 64 66 138 213 222 218 220 226 236 235 234 226
188 182 132 147 175 198 227 183 131 107 98 188 176 186 100 142 144 144 146 150 139 128 116 104 95 86 79 71 65 66 57 54 46 47 49 61 56 228 232 234 235 234 236 233
163 152 215 204 115 113 188 185 190 200 178 158 224 152 191 183 171 168 163 146 133 129 116 113 105 95 85 77 68 62 47 30 29 39 44 45 28 5 329 292 262 242 239 239
214 196 188 92 85 76 199 183 177 200 180 203 172 193 193 188 178 170 151 150 152 148 136 122 114 96 78 74 67 61 55 37 21 26 28 20 7 358 340 317 286 274 251 250
150 165 138 165 87 48 258 215 207 223 227 270 110 249 85 98 111 150 164 163 161 156 141 128 104 89 81 71 68 59 34 27 1 12 15 359 350 346 336 326 310 288 259 243
171 149 160 202 98 202 270 215 190 193 194 148 186 201 156 158 172 171 166 168 167 160 152 137 124 104 72 39 34 54 17 341 344 336 329 341 344 325 322 318 306 292 278 252
144 118 32 115 146 230 310 84 284 218 196 200 153 166 159 136 97 103 39 154 143 138 137 142 117 4 22 354 354 332 274 287 289 288 284 281 284 288 295 291 286 284 275 267
348 138 125 172 212 323 210 193 172 177 255 191 159 147 136 129 121 92 115 107 118 113 94 73 350 324 335 341 345 341 331 304 300 292 293 306 293 287 281 273 274 273 266 261
74 63 181 159 215 233 47 160 197 202 271 170 147 160 155 162 167 151 147 128 111 92 73 27 355 1 14 13 351 344 345 334 316 316 317 313 304 290 284 282 275 264 252 257
151 163 214 194 240 283 144 146 170 185 325 157 152 157 158 162 36 119 126 108 99 92 57 34 37 47 14 353 337 340 323 6 344 333 319 309 306 296 288 284 270 262 255 256
172 160 181 141 206 258 141 130 211 63 75 125 147 158 122 118 118 113 110 102 89 78 45 27 48 41 14 5 15 12 11 341 330 322 309 302 302 299 290 282 273 262 255 253
219 212 187 208 207 67 60 36 56 11 123 118 142 145 137 134 135 129 119 104 86 73 57 34 39 30 26 17 17 7 348 339 331 323 317 308 296 292 283 273 265 259 253 250
211 190 236 181 151 113 124 72 58 74 111 119 125 134 139 135 131 124 122 115 110 92 76 37 39 39 22 9 9 359 336 334 325 318 319 314 310 296 283 271 265 257 250 250
43 155 170 262 129 139 164 77 106 99 102 103 92 98 113 122 120 127 123 122 124 116 100 61 44 31 13 356 358 355 343 334 328 322 323 327 321 320 305 287 276 265 260 253
359 29 221 72 71 16 74 117 119 108 103 104 108 97 81 111 124 129 119 113 104 90 70 54 47 22 3 350 339 340 336 335 332 331 333 322 323 320 315 307 297 277 273 263